Location: Edisto_Beach
(32.4790°N, 80.3350°W)
Time: 10:13:19
(UTC-05:00)

Amateur Radio Satellites - All Passes

Search period start: 04 March 2015 09:43
Search period end: 05 March 2015 09:43
Location: Edisto_Beach, 32.4790°N, 80.3350°W

Satellite Date Start Highest point End Downlink Frequencies (MHz)
Time Altitude Azimuth
UWE-3 04 Mar 09:45:33 09:49:14 31° 97° (E) 09:52:59 435.000/436.395/437.385
NANOSAT C BR1 04 Mar 09:55:49 09:59:08 23° 72° (ENE) 10:02:33 145.865
GOMX 1 04 Mar 09:56:14 09:59:46 25° 288° (WNW) 10:03:07 467.674
SO-50 04 Mar 09:56:16 10:00:28 27° 53° (NE) 10:04:41 436.795
BRITE-PL 04 Mar 10:01:10 10:03:46 15° 291° (WNW) 10:06:05 437.365/2234.400
AAUSAT CUBESAT 2 04 Mar 10:03:28 10:07:19 35° 286° (WNW) 10:11:08 437.432
COMPASS 1 04 Mar 10:07:39 10:11:16 27° 287° (WNW) 10:14:49 437.405
Oscar 11 04 Mar 10:08:06 10:12:26 75° 283° (WNW) 10:16:45 145.826/435.025
CINEMA 3 04 Mar 10:17:34 10:21:29 40° 285° (WNW) 10:25:21 145.822/145.860
DOVE 4 04 Mar 10:23:21 10:26:16 18° 289° (WNW) 10:29:01 437.250
CUBEBUG 2 04 Mar 10:26:24 10:30:30 61° 284° (WNW) 10:34:37 437.445
50 SAT 04 Mar 10:27:05 10:30:21 25° 96° (E) 10:33:41 437.505
QB50P1 04 Mar 10:28:09 10:32:21 57° 76° (ENE) 10:36:33 145.935-145.965
BUGSAT 1 04 Mar 10:29:31 10:33:32 42° 74° (ENE) 10:37:36 437.445
UNISAT 6 04 Mar 10:29:34 10:33:59 69° 259° (W) 10:38:18 437.425
GONETS M04 04 Mar 10:30:45 10:38:29 35° 272° (W) 10:46:02
QB50P2 04 Mar 10:32:34 10:36:49 67° 76° (ENE) 10:41:05 145.880/145.840
RS-15 04 Mar 10:34:42 10:44:28 31° 253° (WSW) 10:54:03 29.354- 29.394
DX 1 04 Mar 10:35:22 10:39:45 84° 283° (WNW) 10:44:05 434.975-435.025
SEEDS 04 Mar 10:40:27 10:41:04 10° 291° (WNW) 10:41:25 437.485
DANDE 04 Mar 10:42:05 10:43:26 13° 76° (ENE) 10:44:54 436.750
CUBEBUG 1 04 Mar 10:45:18 10:48:10 18° 93° (E) 10:51:11 437.445
DUCHIFAT 1 04 Mar 10:46:02 10:50:20 85° 258° (WSW) 10:54:37 145.980
AISAT 04 Mar 10:46:46 10:51:03 48° 99° (E) 10:55:19 437.250
HUMSAT D 04 Mar 10:47:46 10:51:53 75° 101° (E) 10:56:01 437.325/437.525
TIGRISAT 04 Mar 10:54:12 10:58:17 35° 262° (W) 11:02:15 435.000
VELOX 1 04 Mar 10:55:21 10:59:45 60° 101° (E) 11:04:07 145.980
FUNcube-1 04 Mar 10:56:42 11:00:36 40° 285° (WNW) 11:04:31 145.935
ZACube-1 04 Mar 10:58:40 11:02:31 37° 286° (WNW) 11:06:22 437.345
CUSAT 1 04 Mar 11:00:18 11:02:50 46° 80° (E) 11:05:38 437.405
DELFI C3 04 Mar 11:01:27 11:04:31 20° 288° (WNW) 11:07:30 145.870
UKube-1 04 Mar 11:02:55 11:07:01 40° 286° (WNW) 11:11:02 .
POPSAT HIP 1 04 Mar 11:08:12 11:12:19 43° 261° (W) 11:16:25 437.405
POLYITAN 1 04 Mar 11:08:38 11:12:44 42° 261° (W) 11:16:48 437.675
ANTELSAT 04 Mar 11:09:24 11:12:58 23° 264° (W) 11:16:24 437.575/2403.000
ESTCUBE 1 04 Mar 11:17:35 11:22:00 49° 100° (E) 11:26:24 437.505/2401.250
UWE-3 04 Mar 11:22:57 11:25:36 16° 289° (WNW) 11:28:06 435.000/436.395/437.385
NANOSAT C BR1 04 Mar 11:31:26 11:34:55 23° 265° (W) 11:38:19 145.865
SO-50 04 Mar 11:36:42 11:41:00 30° 248° (WSW) 11:45:11 436.795
50 SAT 04 Mar 12:02:29 12:05:13 18° 288° (WNW) 12:07:49 437.505
BUGSAT 1 04 Mar 12:07:23 12:09:17 12° 269° (W) 12:10:55 437.445
CUBEBUG 1 04 Mar 12:20:44 12:24:38 31° 287° (WNW) 12:28:27 437.445
AISAT 04 Mar 12:25:21 12:27:18 12° 292° (WNW) 12:28:59 437.250
Oscar 19 04 Mar 12:31:55 12:36:31 35° 72° (ENE) 12:41:10 437.125/150
ITAMSAT 1 04 Mar 12:37:27 12:39:11 12° 66° (ENE) 12:41:16 435.822/435.867
TISAT 1 04 Mar 12:42:35 12:46:48 86° 283° (WNW) 12:51:00 437.305
SPROUT 04 Mar 12:45:14 12:49:31 70° 283° (WNW) 12:53:45 437.525
ESTCUBE 1 04 Mar 12:56:24 12:58:30 13° 292° (WNW) 13:00:22 437.505/2401.250
SWISSCUBE 04 Mar 13:11:38 13:15:42 28° 96° (E) 13:19:49 437.505
BEESAT 04 Mar 13:19:47 13:24:01 31° 97° (E) 13:28:16 436.000
ITUPSAT 1 04 Mar 13:47:56 13:52:44 64° 101° (E) 13:57:31 437.325
Gurwin Techsat 1B 04 Mar 13:56:24 14:01:35 58° 74° (ENE) 14:06:49 435.225
HORYU 2 04 Mar 14:00:43 14:02:33 13° 68° (ENE) 14:04:37 437.375
Oscar 19 04 Mar 14:11:59 14:15:58 22° 266° (W) 14:19:47 437.125/150
ITAMSAT 1 04 Mar 14:12:59 14:18:10 69° 258° (WSW) 14:23:25 435.822/435.867
KKS-1 04 Mar 14:37:11 14:41:18 38° 98° (E) 14:45:27 437.445
STARS 04 Mar 14:39:30 14:43:03 25° 96° (E) 14:46:41 437.465
ISS 04 Mar 14:46:16 14:48:34 18° 34° (NE) 14:50:56 145.825
SWISSCUBE 04 Mar 14:49:34 14:53:28 24° 289° (WNW) 14:57:16 437.505
BEESAT 04 Mar 14:58:00 15:01:42 22° 290° (WNW) 15:05:16 436.000
AO-7 04 Mar 15:15:51 15:24:00 61° 70° (ENE) 15:32:10 29.400- 29.500
YUBILEINY 04 Mar 15:20:12 15:27:50 37° 88° (E) 15:35:43 435.215
ITUPSAT 1 04 Mar 15:28:38 15:30:10 11° 293° (WNW) 15:31:23 437.325
HORYU 2 04 Mar 15:34:36 15:38:52 46° 261° (W) 15:43:08 437.375
Gurwin Techsat 1B 04 Mar 15:39:18 15:42:01 13° 269° (W) 15:44:23 435.225
BEESAT 3 04 Mar 15:48:17 15:51:15 20° 111° (ESE) 15:54:22 437.485
JAS-2 04 Mar 16:02:43 16:08:06 74° 76° (ENE) 16:14:08 435.910
VERMONT LUNAR 04 Mar 16:03:17 16:06:42 59° 150° (SSE) 16:10:09 437.305
MOZHAYETS 4 04 Mar 16:03:55 16:06:30 15° 92° (E) 16:09:18
KKS-1 04 Mar 16:15:01 16:17:41 15° 291° (WNW) 16:20:10 437.445
BEESAT 2 04 Mar 16:15:14 16:18:59 36° 113° (ESE) 16:22:49 435.950
STARS 04 Mar 16:15:59 16:19:27 22° 289° (WNW) 16:22:47 437.465
PHONESAT 2.4 04 Mar 16:21:34 16:24:55 37° 147° (SSE) 16:28:19 2401.200-2431.200
M-CUBED/EXP-1 PRIME 04 Mar 16:21:50 16:25:48 31° 102° (ESE) 16:30:00 437.505
ISS 04 Mar 16:22:07 16:25:03 32° 229° (SW) 16:27:58 145.825
AUBIESAT-1 04 Mar 16:22:12 16:26:01 28° 102° (ESE) 16:30:05 437.475
AIST 2 04 Mar 16:25:15 16:27:47 16° 110° (ESE) 16:30:30 435.215
CUTE-I 04 Mar 16:29:17 16:29:43 10° 64° (ENE) 16:30:33 437.470
AO-7 04 Mar 17:10:41 17:17:18 24° 265° (W) 17:23:34 29.400- 29.500
YUBILEINY 04 Mar 17:16:32 17:24:36 40° 284° (WNW) 17:32:37 435.215
BEESAT 3 04 Mar 17:25:42 17:29:13 27° 305° (NW) 17:32:43 437.485
MOZHAYETS 4 04 Mar 17:39:35 17:43:57 40° 286° (WNW) 17:48:16
VERMONT LUNAR 04 Mar 17:41:35 17:44:45 31° 345° (NNW) 17:47:54 437.305
BEESAT 2 04 Mar 17:54:35 17:57:20 17° 309° (NW) 17:59:57 435.950
Cubesat XI-IV 04 Mar 17:55:28 18:00:50 83° 77° (ENE) 18:06:15 437.490
M-CUBED/EXP-1 PRIME 04 Mar 17:57:10 18:00:34 21° 292° (WNW) 18:03:58 437.505
AUBIESAT-1 04 Mar 17:57:11 18:00:45 24° 292° (WNW) 18:04:22 437.475
AIST 1 04 Mar 17:57:12 18:01:15 36° 79° (E) 18:05:18
PRISM 04 Mar 17:59:48 18:02:40 18° 94° (E) 18:05:40 437.425
PHONESAT 2.4 04 Mar 17:59:53 18:03:21 42° 340° (NNW) 18:06:50 2401.200-2431.200
AIST 2 04 Mar 18:02:12 18:06:07 36° 303° (WNW) 18:10:05 435.215
CUTE-I 04 Mar 18:03:50 18:09:11 83° 255° (WSW) 18:14:36 437.470
CUBESAT XI-V 04 Mar 18:07:46 18:11:35 25° 95° (E) 18:15:27 437.345
O/OREOS (USA 219) 04 Mar 18:09:51 18:12:14 14° 59° (ENE) 18:14:49 437.305
STRAND 1 04 Mar 19:03:42 19:08:46 59° 100° (E) 19:13:50 437.568
VERMONT LUNAR 04 Mar 19:20:31 19:23:15 21° 1° (N) 19:25:59 437.305
GOMX 1 04 Mar 19:21:58 19:25:25 18° 70° (ENE) 19:28:58 467.674
BRITE-PL 04 Mar 19:26:39 19:31:32 32° 73° (ENE) 19:36:21 437.365/2234.400
PRISM 04 Mar 19:34:33 19:38:13 28° 288° (WNW) 19:41:47 437.425
AIST 1 04 Mar 19:36:16 19:38:37 14° 272° (W) 19:40:44
PHONESAT 2.4 04 Mar 19:39:25 19:42:22 22° 357° (N) 19:45:17 2401.200-2431.200
CUBESAT XI-V 04 Mar 19:45:04 19:48:59 26° 288° (WNW) 19:52:46 437.345
DOVE 4 04 Mar 19:46:12 19:49:55 21° 72° (ENE) 19:53:41 437.250
O/OREOS (USA 219) 04 Mar 19:47:35 19:51:58 45° 255° (WSW) 19:56:17 437.305
PCSat 04 Mar 19:48:48 19:54:03 55° 112° (ESE) 19:59:22 145.827
SEEDS 04 Mar 19:50:08 19:53:12 21° 72° (ENE) 19:56:23 437.485
CANX-2 04 Mar 19:56:09 19:59:54 33° 74° (ENE) 20:03:43 2200.000
HO-68 04 Mar 20:00:15 20:07:10 57° 71° (ENE) 20:14:09 435.675
CUTE 1.7 + AOD 2 04 Mar 20:14:04 20:18:08 50° 76° (ENE) 20:22:14 437.475
UWE-3 04 Mar 20:39:32 20:42:10 16° 71° (ENE) 20:44:57 435.000/436.395/437.385
STRAND 1 04 Mar 20:44:55 20:47:32 14° 293° (WNW) 20:49:52 437.568
AAUSAT CUBESAT 2 04 Mar 20:49:29 20:53:36 82° 78° (ENE) 20:57:46 437.432
COMPASS 1 04 Mar 20:53:51 20:58:00 74° 259° (WSW) 21:02:09 437.405
GOMX 1 04 Mar 20:58:04 21:03:16 46° 261° (W) 21:08:15 467.674
Oscar 11 04 Mar 20:58:21 21:02:27 45° 75° (ENE) 21:06:34 145.826/435.025
VERMONT LUNAR 04 Mar 20:58:27 21:01:43 37° 18° (NNE) 21:04:59 437.305
BRITE-PL 04 Mar 21:05:07 21:10:00 29° 265° (W) 21:14:38 437.365/2234.400
CINEMA 3 04 Mar 21:13:57 21:18:47 82° 259° (W) 21:23:25 145.822/145.860
PHONESAT 2.4 04 Mar 21:18:10 21:21:27 31° 14° (NNE) 21:24:43 2401.200-2431.200
CUBEBUG 2 04 Mar 21:19:51 21:24:18 61° 76° (ENE) 21:28:39 437.445
DOVE 4 04 Mar 21:22:44 21:27:31 36° 262° (W) 21:32:03 437.250
SEEDS 04 Mar 21:25:29 21:28:55 24° 265° (W) 21:32:17 437.485
DX 1 04 Mar 21:26:25 21:30:36 45° 74° (ENE) 21:34:49 434.975-435.025
GONETS M04 04 Mar 21:28:31 21:36:52 56° 92° (E) 21:45:19
CANX-2 04 Mar 21:33:28 21:35:59 15° 268° (W) 21:38:20 2200.000
PCSat 04 Mar 21:34:12 21:37:53 18° 309° (NW) 21:41:24 145.827
HUMSAT D 04 Mar 21:35:42 21:39:17 28° 73° (ENE) 21:42:54 437.325/437.525
AISAT 04 Mar 21:40:43 21:44:23 26° 71° (ENE) 21:48:08 437.250
DELFI C3 04 Mar 21:43:53 21:47:51 59° 260° (W) 21:51:50 145.870
FUNcube-1 04 Mar 21:47:32 21:51:55 85° 78° (ENE) 21:56:14 145.935
VELOX 1 04 Mar 21:48:53 21:52:46 30° 72° (ENE) 21:56:44 145.980
ZACube-1 04 Mar 21:49:38 21:54:02 89° 258° (WSW) 21:58:20 437.345
HO-68 04 Mar 21:49:54 21:55:18 22° 267° (W) 22:00:26 435.675
UKube-1 04 Mar 21:52:52 21:57:13 88° 257° (WSW) 22:01:36 .
ESTCUBE 1 04 Mar 22:13:16 22:17:00 27° 72° (ENE) 22:20:49 437.505/2401.250
UWE-3 04 Mar 22:14:24 22:18:30 35° 262° (W) 22:22:29 435.000/436.395/437.385
QB50P1 04 Mar 22:19:53 22:21:49 13° 92° (E) 22:23:58 145.935-145.965
QB50P2 04 Mar 22:24:06 22:26:33 16° 93° (E) 22:29:11 145.880/145.840
CUSAT 1 04 Mar 22:24:28 22:25:49 11° 94° (E) 22:27:32 437.405
UNISAT 6 04 Mar 22:26:21 22:30:15 33° 98° (E) 22:34:13 437.425
VERMONT LUNAR 04 Mar 22:36:20 22:39:38 41° 213° (SSW) 22:42:54 437.305
DUCHIFAT 1 04 Mar 22:36:31 22:39:41 21° 95° (E) 22:42:57 145.980
Oscar 11 04 Mar 22:37:23 22:38:56 11° 269° (W) 22:40:12 145.826/435.025
RS-15 04 Mar 22:38:38 22:49:21 67° 113° (ESE) 23:00:11 29.354- 29.394
50 SAT 04 Mar 22:43:24 22:47:18 54° 260° (W) 22:51:11 437.505
TIGRISAT 04 Mar 22:49:59 22:54:15 64° 101° (E) 22:58:35 435.000
PHONESAT 2.4 04 Mar 22:56:28 23:00:05 66° 210° (SSW) 23:03:39 2401.200-2431.200
POPSAT HIP 1 04 Mar 22:58:11 23:02:09 40° 98° (E) 23:06:08 437.405
POLYITAN 1 04 Mar 22:58:50 23:02:51 42° 99° (E) 23:06:51 437.675
ANTELSAT 04 Mar 23:04:52 23:09:11 81° 283° (WNW) 23:13:35 437.575/2403.000
DX 1 04 Mar 23:05:17 23:07:09 12° 268° (W) 23:08:44 434.975-435.025
CUBEBUG 1 04 Mar 23:11:39 23:16:03 68° 259° (WSW) 23:20:30 437.445
HUMSAT D 04 Mar 23:12:14 23:15:07 17° 266° (W) 23:17:50 437.325/437.525
AISAT 04 Mar 23:17:20 23:20:57 23° 265° (W) 23:24:29 437.250
NANOSAT C BR1 04 Mar 23:20:14 23:24:28 80° 102° (ESE) 23:28:39 145.865
VELOX 1 04 Mar 23:26:09 23:29:24 19° 266° (W) 23:32:31 145.980
GONETS M04 04 Mar 23:27:12 23:34:15 26° 289° (WNW) 23:41:00
TISAT 1 04 Mar 23:30:28 23:34:24 38° 74° (ENE) 23:38:23 437.305
SPROUT 04 Mar 23:34:46 23:38:56 48° 75° (ENE) 23:43:08 437.525
DANDE 04 Mar 23:45:52 23:52:55 65° 97° (E) 23:58:14 436.750
ESTCUBE 1 04 Mar 23:50:17 23:53:52 22° 265° (W) 23:57:21 437.505/2401.250
BUGSAT 1 04 Mar 23:51:50 23:55:53 55° 285° (WNW) 23:59:51 437.445
QB50P1 04 Mar 23:53:59 23:57:54 37° 286° (WNW) 00:01:46 145.935-145.965
QB50P2 04 Mar 23:58:48 00:02:36 32° 287° (WNW) 00:06:19 145.880/145.840
CUSAT 1 05 Mar 00:02:14 00:08:48 72° 277° (W) 00:13:43 437.405
UNISAT 6 05 Mar 00:04:00 00:06:50 17° 289° (WNW) 00:09:32 437.425
SO-50 05 Mar 00:07:00 00:10:29 23° 111° (ESE) 00:14:10 436.795
DUCHIFAT 1 05 Mar 00:12:05 00:15:30 24° 288° (WNW) 00:18:48 145.980
SWISSCUBE 05 Mar 00:14:35 00:17:53 20° 70° (ENE) 00:21:23 437.505
JUGNU 05 Mar 00:19:06 00:22:20 15° 166° (SSE) 00:25:40 437.505
BEESAT 05 Mar 00:22:29 00:26:03 22° 70° (ENE) 00:29:45 436.000
POPSAT HIP 1 05 Mar 00:35:42 00:37:44 13° 291° (WNW) 00:39:34 437.405
POLYITAN 1 05 Mar 00:36:34 00:38:27 12° 291° (WNW) 00:40:08 437.675
Oscar 19 05 Mar 00:48:57 00:52:15 18° 93° (E) 00:55:46 437.125/150
ITUPSAT 1 05 Mar 00:50:22 00:54:52 43° 73° (ENE) 00:59:25 437.325
RS-15 05 Mar 00:53:05 01:02:36 32° 315° (NW) 01:11:59 29.354- 29.394
TISAT 1 05 Mar 01:08:05 01:10:25 14° 268° (W) 01:12:30 437.305
SPROUT 05 Mar 01:14:00 01:15:21 11° 269° (W) 01:16:25 437.525
KKS-1 05 Mar 01:31:41 01:34:58 21° 71° (ENE) 01:38:22 437.445
DANDE 05 Mar 01:32:41 01:36:14 14° 285° (WNW) 01:39:02 436.750
STARS 05 Mar 01:33:41 01:35:44 13° 69° (ENE) 01:38:00 437.465
YUBILEINY 05 Mar 01:38:29 01:41:52 13° 63° (ENE) 01:46:02 435.215
SO-50 05 Mar 01:46:48 01:50:53 30° 306° (NW) 01:55:02 436.795
BEESAT 3 05 Mar 01:48:35 01:52:30 42° 58° (ENE) 01:56:23 437.485
SWISSCUBE 05 Mar 01:51:12 01:55:33 34° 263° (W) 01:59:53 437.505
BEESAT 05 Mar 01:59:32 02:03:46 30° 263° (W) 02:07:56 436.000
JUGNU 05 Mar 02:06:14 02:10:45 23° 175° (S) 02:15:19 437.505
SRMSAT 05 Mar 02:13:16 02:17:01 17° 168° (SSE) 02:20:50 437.500
BEESAT 2 05 Mar 02:16:45 02:20:54 79° 60° (ENE) 02:24:58 435.950
Gurwin Techsat 1B 05 Mar 02:17:37 02:22:23 34° 97° (E) 02:27:11 435.225
Oscar 19 05 Mar 02:27:00 02:31:49 42° 287° (WNW) 02:36:37 437.125/150
AIST 2 05 Mar 02:28:13 02:32:08 36° 57° (ENE) 02:36:01 435.215
ITUPSAT 1 05 Mar 02:30:10 02:33:01 15° 268° (W) 02:35:38 437.325
ITAMSAT 1 05 Mar 02:30:35 02:35:46 63° 101° (E) 02:40:55 435.822/435.867
KKS-1 05 Mar 03:07:34 03:11:28 28° 263° (W) 03:15:18 437.445
STARS 05 Mar 03:07:38 03:11:53 44° 261° (W) 03:16:07 437.465
M-CUBED/EXP-1 PRIME 05 Mar 03:08:51 03:10:38 14° 66° (ENE) 03:12:35 437.505
AUBIESAT-1 05 Mar 03:09:04 03:10:26 12° 65° (ENE) 03:11:58 437.475
JAS-2 05 Mar 03:17:37 03:21:57 17° 89° (E) 03:26:51 435.910
AO-7 05 Mar 03:23:42 03:30:07 26° 95° (E) 03:36:50 29.400- 29.500
BEESAT 3 05 Mar 03:28:30 03:30:15 12° 251° (WSW) 03:31:46 437.485
HORYU 2 05 Mar 03:30:26 03:34:43 46° 99° (E) 03:39:01 437.375
YUBILEINY 05 Mar 03:31:25 03:40:18 84° 83° (E) 03:49:08 435.215
JUGNU 05 Mar 03:54:42 03:59:13 22° 185° (S) 04:03:45 437.505
Gurwin Techsat 1B 05 Mar 03:57:56 04:02:13 24° 290° (WNW) 04:06:21 435.225
SRMSAT 05 Mar 04:00:56 04:05:37 24° 177° (S) 04:10:19 437.500
AIST 2 05 Mar 04:07:52 04:10:28 16° 250° (WSW) 04:12:53 435.215
ITAMSAT 1 05 Mar 04:12:18 04:14:48 13° 294° (WNW) 04:16:59 435.822/435.867
MOZHAYETS 4 05 Mar 04:36:33 04:41:06 75° 258° (WSW) 04:45:41
AUBIESAT-1 05 Mar 04:42:21 04:45:08 25° 259° (W) 04:47:57 437.475
PCSat 05 Mar 04:42:24 04:45:58 18° 52° (NE) 04:49:43 145.827
M-CUBED/EXP-1 PRIME 05 Mar 04:42:52 04:45:28 21° 260° (W) 04:48:05 437.505
JAS-2 05 Mar 05:00:00 05:07:42 82° 284° (WNW) 05:15:34 435.910
CUBESAT XI-V 05 Mar 05:07:56 05:10:30 15° 69° (ENE) 05:13:19 437.345
HORYU 2 05 Mar 05:08:52 05:11:02 13° 292° (WNW) 05:12:58 437.375
AO-7 05 Mar 05:15:17 05:23:22 58° 291° (WNW) 05:31:22 29.400- 29.500
YUBILEINY 05 Mar 05:31:13 05:36:14 16° 278° (W) 05:40:34 435.215
RS-15 05 Mar 05:34:52 05:40:05 14° 26° (NNE) 05:45:59 29.354- 29.394
JUGNU 05 Mar 05:44:31 05:47:40 14° 194° (SSW) 05:50:43 437.505
SRMSAT 05 Mar 05:49:47 05:54:15 22° 187° (S) 05:58:42 437.500
STRAND 1 05 Mar 06:14:58 06:19:57 53° 74° (ENE) 06:24:58 437.568
Cubesat XI-IV 05 Mar 06:17:42 06:22:53 49° 99° (E) 06:28:03 437.490
PRISM 05 Mar 06:19:45 06:23:52 72° 258° (WSW) 06:28:02 437.425
AIST 1 05 Mar 06:22:12 06:25:48 27° 91° (E) 06:29:32
PCSat 05 Mar 06:24:30 06:29:48 54° 248° (WSW) 06:35:01 145.827
CUTE-I 05 Mar 06:25:48 06:31:05 59° 101° (E) 06:36:21 437.470
CUBESAT XI-V 05 Mar 06:43:10 06:47:38 43° 262° (W) 06:52:08 437.345
JAS-2 05 Mar 06:47:57 06:51:53 14° 297° (WNW) 06:55:23 435.910
ISS 05 Mar 07:21:12 07:24:22 61° 133° (SE) 07:27:33 145.825
HO-68 05 Mar 07:36:37 07:38:43 12° 89° (E) 07:41:27 435.675
SRMSAT 05 Mar 07:40:14 07:42:50 13° 196° (SSW) 07:45:19 437.500
RS-15 05 Mar 07:45:15 07:56:18 51° 54° (NE) 08:07:55 29.354- 29.394
GONETS M04 05 Mar 07:45:39 07:51:44 21° 69° (ENE) 07:58:18
STRAND 1 05 Mar 07:56:42 07:59:31 14° 269° (W) 08:02:02 437.568
Cubesat XI-IV 05 Mar 07:59:06 08:02:39 18° 293° (WNW) 08:05:57 437.490
AIST 1 05 Mar 08:00:22 08:03:31 19° 285° (WNW) 08:06:32
CUTE 1.7 + AOD 2 05 Mar 08:05:51 08:07:36 13° 91° (E) 08:09:37 437.475
CUTE-I 05 Mar 08:07:44 08:10:45 15° 293° (WNW) 08:13:27 437.470
O/OREOS (USA 219) 05 Mar 08:16:03 08:20:08 35° 104° (ESE) 08:24:20 437.305
AAUSAT CUBESAT 2 05 Mar 08:38:18 08:41:10 18° 94° (E) 08:44:11 437.432
COMPASS 1 05 Mar 08:42:40 08:46:05 24° 95° (E) 08:49:36 437.405
Oscar 11 05 Mar 08:52:25 08:53:54 12° 91° (E) 08:55:41 145.826/435.025
ISS 05 Mar 08:59:30 09:01:03 13° 329° (NNW) 09:02:31 145.825
GOMX 1 05 Mar 09:05:13 09:09:30 78° 101° (E) 09:13:37 467.674
SEEDS 05 Mar 09:13:36 09:17:50 78° 101° (E) 09:22:05 437.485
CINEMA 3 05 Mar 09:14:12 09:17:50 30° 97° (E) 09:21:32 145.822/145.860
BRITE-PL 05 Mar 09:14:57 09:19:11 48° 285° (WNW) 09:23:12 437.365/2234.400
CUBEBUG 2 05 Mar 09:16:51 09:19:28 17° 93° (E) 09:22:15 437.445
HO-68 05 Mar 09:20:11 09:27:25 90° 81° (E) 09:34:38 435.675
CANX-2 05 Mar 09:21:24 09:25:37 62° 284° (WNW) 09:29:50 2200.000
DX 1 05 Mar 09:21:56 09:23:05 11° 91° (E) 09:24:32 434.975-435.025
UNISAT 6 05 Mar 09:22:08 09:24:59 18° 71° (ENE) 09:27:59 437.425
DOVE 4 05 Mar 09:26:40 09:30:53 87° 282° (WNW) 09:35:00 437.250
DELFI C3 05 Mar 09:28:50 09:32:13 25° 96° (E) 09:35:41 145.870
